Kezdőlap
METAR-TAF:

METAR-TAF

Repülőterek :

Atlantic, Iowa, Amerikai Egyesült Államok

földrajzi szélesség: 41-24N, földrajzi hosszúság: 095-03W, magasság: 360 m

Jelenlegi meteorológiai megfigyelések

A jelentés 22 perccel ezelõtt készült, 16:15 UTC
Déli szél 11 kt
Hőmérséklet 3°C
Páratartalom 75%
Légköri nyomás 1021 hPa
Látótávolság: 16.1 km
Derült ég

METAR: KAIO 081615Z AUTO 19011KT 10SM CLR 03/M01 A3016 RMK AO2

Idő: 10:37 (16:37 UTC)


TAF: hiányzik

Meteorológiai megfigyelések és előrejelzések több, mint 4000 repülőtéren (METAR és TAF jelentéseket).

A térképen piros és sárga pontok jelzik az elérhető meteorológiai állomásokat.

Mozgassa az egeret a pont fölött, hogy megjelenjen az állomás neve.

Azután kattintson az időjárási megfigyelések és előrejelzések megtekintéséhez.

A térkép megváltoztatása: kattintson a fekete keresztel jelölt zöld gombra ráközelítéshez, a vonallal jelölt zöld gombra távolításhoz, vagy a zöld nyilakra a szomszédos térképek eléréséhez.


METAR-TAF: